Regional Weather Roundup
Issued by NWS Raleigh/Durham, NC

Home | Current Version | Previous Version | Text Only | Print | Product List | Glossary On
Versions: 1 2 3 4 5 6 7 8 9 10 11 12 13 14 15 16 17 18 19 20 21 22 23 24 25 26 27
000
ASUS42 KRAH 260010
RWRRAH
NORTH CAROLINA WEATHER ROUNDUP
NATIONAL WEATHER SERVICE RALEIGH NC
800 PM EDT WED MAY 25 2016

NOTE: "FAIR" INDICATES FEW OR NO CLOUDS BELOW 12,000 FEET WITH NO
SIGNIFICANT WEATHER AND/OR OBSTRUCTIONS TO VISIBILITY.

NCZ001-053-055-056-065-067-260100-
WESTERN NORTH CAROLINA

CITY           SKY/WX    TMP DP  RH WIND       PRES   REMARKS
ASHEVILLE      MOCLDY    75  55  49 S7        30.22R
JEFFERSON      CLOUDY    69  55  61 CALM      30.26S
MORGANTON      CLEAR     73  64  74 CALM      30.21S
HICKORY        CLEAR     79  56  45 S5        30.16S
RUTHERFORDTON  CLEAR     79  58  48 SW3       30.17S
MOUNT AIRY     CLEAR     80  61  52 CALM      30.19R
BOONE          PTCLDY    71  53  52 S6        30.27S
$$

NCZ021-022-025-041-071-084-088-260100-
CENTRAL NORTH CAROLINA

CITY           SKY/WX    TMP DP  RH WIND       PRES   REMARKS
CHARLOTTE      PTCLDY    79  58  48 SW5       30.17R
GREENSBORO     MOCLDY    79  53  40 SW6       30.15S
WINSTON-SALEM  CLEAR     82  54  37 VRB5      30.17S
RALEIGH-DURHAM MOCLDY    78  59  51 CALM      30.15S
FORT BRAGG     PTCLDY    84  56  38 S5        30.13S
FAYETTEVILLE   PTCLDY    82  58  43 S6        30.14R
BURLINGTON     CLEAR     80  55  42 S3        30.15S
LAURINBURG     CLEAR     81  61  50 S5        30.15R
$$

NCZ011-015-027-028-043-044-047-080-103-260100-
NORTHEASTERN NORTH CAROLINA

CITY           SKY/WX    TMP DP  RH WIND       PRES   REMARKS
ROCKY MT-WILSO CLEAR     77  63  61 CALM      30.14S
GREENVILLE     CLEAR     79  61  53 CALM      30.16S
WASHINGTON     CLEAR     80  60  51 S7        30.15S
ELIZABETH CITY CLEAR     78  60  53 S6        30.13F
MANTEO         PTCLDY    75  64  67 S7        30.17S
CAPE HATTERAS  CLEAR     71  67  87 SW7       30.18S
$$

NCZ078-087-090-091-093-098-101-260100-
SOUTHEASTERN NORTH CAROLINA

CITY           SKY/WX    TMP DP  RH WIND       PRES   REMARKS
LUMBERTON      CLEAR     81  64  56 S3        30.15R
GOLDSBORO      CLEAR     81  58  44 S3        30.14R
KINSTON        CLEAR     81  59  47 S10       30.17R
KENANSVILLE    CLEAR     78  60  53 SE3       30.16S
NEW BERN       CLEAR     77  57  50 S7        30.18R
CHERRY POINT   PTCLDY    74  58  57 S8        30.18S
BEAUFORT       CLEAR     73  65  75 S9        30.18S
JACKSONVILLE   CLEAR     75  57  53 S7        30.17S
WILMINGTON     CLEAR     76  58  53 S8        30.18R
$$





USA.gov is the U.S. government's official web portal to all federal, state and local government web resources and services.